Dades meteomassalio
Diari Summary for Diciembre 24, 2017 Units:  Metric    English   Both
« Previous Day
Next Day »
Diari Semanal Mensual Anual Personalitzat
  Maxima: Minima: Mijana:
Temperatura: -17.8 °C -19.9 °C -17.3 °C
Rosada: -17.8 °C -20.7 °C -18.4 °C
Humitat: Humidity % 73 % 87 %
Velocitat del vent: 0 km/h 0 km/h 2.4 km/h
Racha vent: 0 km/h - -
Vent:- - East
Pressio: 0 hPa 34990.9 hPa -
Pluja: 7.62 mm    
Historical Graphs
 
 
Tabular Data for Diciembre 24, 2017
Time Temperature Dew Point Pressure Wind Wind Speed Wind Gust Humidity Rainfall Rate (Hourly) solar Conditions
-17.8 °C -17.8 °C 0 hPa Calm     Humidity % 0 mm SolarRadiationWatts/m^2 W/m2 Conditions
00:03 -18.1 °C -19 °C 35173.8 hPa Calm     89 % 0 mm 0.0 W/m2 CLR
00:08 -18.1 °C -19 °C 35173.8 hPa Calm     89 % 0 mm 0.0 W/m2 CLR
00:10 -18.1 °C -19 °C 35173.8 hPa Calm     89 % 0 mm 0.0 W/m2 CLR
00:13 -18.1 °C -19 °C 35173.8 hPa Calm     89 % 0 mm 0.0 W/m2 CLR
00:18 -18.1 °C -18.9 °C 35173.8 hPa Calm     90 % 0 mm 0.0 W/m2 CLR
00:19 -18.1 °C -18.9 °C 35173.8 hPa Calm     90 % 0 mm 0.0 W/m2 CLR
00:20 -18.1 °C -19 °C 35173.8 hPa Calm     89 % 0 mm 0.0 W/m2 CLR
00:25 -18.4 °C -19.2 °C 35173.8 hPa Calm     90 % 0 mm 0.0 W/m2 CLR
00:26 -18.4 °C -19.2 °C 35173.8 hPa Calm     90 % 0 mm 0.0 W/m2 CLR
00:31 -18.4 °C -19.2 °C 35173.8 hPa Calm     90 % 0 mm 0.0 W/m2 CLR
00:34 -18.4 °C -19.2 °C 35173.8 hPa Calm     90 % 0 mm 0.0 W/m2 CLR
00:39 -18.4 °C -19.2 °C 35173.8 hPa Calm     90 % 0 mm 0.0 W/m2 CLR
00:44 -18.1 °C -18.9 °C 35173.8 hPa Calm     90 % 0 mm 0.0 W/m2 CLR
00:45 -18.1 °C -18.9 °C 35173.8 hPa Calm     90 % 0 mm 0.0 W/m2 CLR
00:50 -18.1 °C -18.9 °C 35163.6 hPa Calm     90 % 0 mm 0.0 W/m2 CLR
00:51 -18.1 °C -18.9 °C 35163.6 hPa Calm     90 % 0 mm 0.0 W/m2 CLR
00:56 -18.1 °C -18.9 °C 35163.6 hPa Calm     90 % 0 mm 0.0 W/m2 CLR
01:02 -18.4 °C -19.2 °C 35163.6 hPa Calm     90 % 0 mm 0.0 W/m2 CLR
01:03 -18.4 °C -19.2 °C 35163.6 hPa Calm     90 % 0 mm 0.0 W/m2 CLR
01:05 -18.4 °C -19.2 °C 35173.8 hPa Calm     90 % 0 mm 0.0 W/m2 CLR
01:10 -18.4 °C -19.2 °C 35163.6 hPa Calm     90 % 0 mm 0.0 W/m2 CLR
01:12 -18.4 °C -19.2 °C 35163.6 hPa Calm     90 % 0 mm 0.0 W/m2 CLR
01:17 -18.4 °C -19.2 °C 35163.6 hPa Calm     90 % 0 mm 0.0 W/m2 CLR
01:22 -18.1 °C -18.9 °C 35163.6 hPa Calm     90 % 0 mm 0.0 W/m2 CLR
01:23 -18.1 °C -18.9 °C 35163.6 hPa Calm     90 % 0 mm 0.0 W/m2 CLR
01:28 -18.1 °C -18.9 °C 35163.6 hPa Calm     90 % 0 mm 0.0 W/m2 CLR
01:33 -18.4 °C -19.2 °C 35163.6 hPa Calm     90 % 0 mm 0.0 W/m2 CLR
01:35 -18.4 °C -19.2 °C 35163.6 hPa Calm     90 % 0 mm 0.0 W/m2 CLR
01:40 -18.4 °C -19.2 °C 35163.6 hPa Calm     90 % 0 mm 0.0 W/m2 CLR
01:42 -18.4 °C -19.2 °C 35163.6 hPa Calm     90 % 0 mm 0.0 W/m2 CLR
01:43 -18.4 °C -19.2 °C 35163.6 hPa Calm     90 % 0 mm 0.0 W/m2 CLR
01:48 -18.4 °C -19.1 °C 35163.6 hPa Calm     91 % 0 mm 0.0 W/m2 CLR
01:49 -18.4 °C -19.1 °C 35163.6 hPa Calm     91 % 0 mm 0.0 W/m2 CLR
01:53 -18.4 °C -19.1 °C 35163.6 hPa Calm     91 % 0 mm 0.0 W/m2 CLR
01:58 -18.7 °C -19.4 °C 35163.6 hPa Calm     91 % 0 mm 0.0 W/m2 CLR
02:00 -18.7 °C -19.4 °C 35163.6 hPa Calm     91 % 0 mm 0.0 W/m2 CLR
02:02 -18.7 °C -19.4 °C 35163.6 hPa Calm     91 % 0 mm 0.0 W/m2 CLR
02:06 -18.7 °C -19.4 °C 35163.6 hPa Calm     91 % 0 mm 0.0 W/m2 CLR
02:11 -18.7 °C -19.4 °C 35163.6 hPa Calm     91 % 0 mm 0.0 W/m2 CLR
02:12 -18.7 °C -19.4 °C 35150.1 hPa Calm     91 % 0 mm 0.0 W/m2 CLR
02:14 -18.7 °C -19.4 °C 35163.6 hPa Calm     91 % 0 mm 0.0 W/m2 CLR
02:17 -18.7 °C -19.5 °C 35163.6 hPa Calm     90 % 0 mm 0.0 W/m2 CLR
02:21 -19 °C -19.8 °C 35163.6 hPa Calm     90 % 0 mm 0.0 W/m2 CLR
02:22 -19 °C -19.8 °C 35163.6 hPa Calm     90 % 0 mm 0.0 W/m2 CLR
02:26 -19 °C -19.8 °C 35163.6 hPa Calm     90 % 0 mm 0.0 W/m2 CLR
02:28 -19 °C -19.8 °C 35163.6 hPa Calm     90 % 0 mm 0.0 W/m2 CLR
02:33 -19 °C -19.8 °C 35163.6 hPa Calm     90 % 0 mm 0.0 W/m2 CLR
02:34 -19 °C -19.8 °C 35163.6 hPa Calm     90 % 0 mm 0.0 W/m2 CLR
02:39 -19 °C -19.8 °C 35163.6 hPa Calm     90 % 0 mm 0.0 W/m2 CLR
02:40 -19 °C -19.8 °C 35150.1 hPa Calm     90 % 0 mm 0.0 W/m2 CLR
02:45 -19.3 °C -20.1 °C 35150.1 hPa Calm     90 % 0 mm 0.0 W/m2 CLR
02:46 -19.3 °C -20.1 °C 35163.6 hPa Calm     91 % 0 mm 0.0 W/m2 CLR
02:49 -19.3 °C -20.1 °C 35150.1 hPa Calm     91 % 0 mm 0.0 W/m2 CLR
02:51 -19.3 °C -20.1 °C 35150.1 hPa Calm     91 % 0 mm 0.0 W/m2 CLR
02:56 -19.3 °C -20.1 °C 35150.1 hPa Calm     91 % 0 mm 0.0 W/m2 CLR
02:57 -19.3 °C -20.1 °C 35150.1 hPa Calm     91 % 0 mm 0.0 W/m2 CLR
03:01 -19.3 °C -20.1 °C 35150.1 hPa Calm     90 % 0 mm 0.0 W/m2 CLR
03:06 -19.6 °C -20.4 °C 35163.6 hPa Calm     90 % 0 mm 0.0 W/m2 CLR
03:07 -19.6 °C -20.4 °C 35163.6 hPa Calm     90 % 0 mm 0.0 W/m2 CLR
03:12 -19.6 °C -20.3 °C 35163.6 hPa Calm     91 % 0 mm 0.0 W/m2 CLR
03:15 -19.6 °C -20.3 °C 35163.6 hPa Calm     91 % 0 mm 0.0 W/m2 CLR
03:17 -19.6 °C -20.4 °C 35163.6 hPa Calm     90 % 0 mm 0.0 W/m2 CLR
03:22 -19.6 °C -20.3 °C 35163.6 hPa Calm     91 % 0 mm 0.0 W/m2 CLR
03:23 -19.6 °C -20.3 °C 35163.6 hPa Calm     91 % 0 mm 0.0 W/m2 CLR
03:28 -19.6 °C -20.3 °C 35150.1 hPa Calm     91 % 0 mm 0.0 W/m2 CLR
03:33 -19.6 °C -20.3 °C 35150.1 hPa Calm     91 % 0 mm 0.0 W/m2 CLR
03:34 -19.6 °C -20.3 °C 35150.1 hPa Calm     91 % 0 mm 0.0 W/m2 CLR
03:39 -19.6 °C -20.3 °C 35150.1 hPa Calm     91 % 0 mm 0.0 W/m2 CLR
03:40 -19.6 °C -20.3 °C 35150.1 hPa Calm     91 % 0 mm 0.0 W/m2 CLR
03:45 -19.6 °C -20.3 °C 35150.1 hPa Calm     91 % 0 mm 0.0 W/m2 CLR
03:49 -19.6 °C -20.2 °C 35150.1 hPa Calm     92 % 0 mm 0.0 W/m2 CLR
03:51 -19.6 °C -20.2 °C 35150.1 hPa Calm     92 % 0 mm 0.0 W/m2 CLR
03:56 -19.6 °C -20.3 °C 35150.1 hPa Calm     91 % 0 mm 0.0 W/m2 CLR
03:58 -19.6 °C -20.3 °C 35150.1 hPa Calm     91 % 0 mm 0.0 W/m2 CLR
04:03 -19.6 °C -20.3 °C 35150.1 hPa Calm     91 % 0 mm 0.0 W/m2 CLR
04:04 -19.6 °C -20.3 °C 35150.1 hPa Calm     91 % 0 mm 0.0 W/m2 CLR
04:09 -19.9 °C -20.7 °C 35150.1 hPa Calm     91 % 0 mm 0.0 W/m2 CLR
04:14 -19.9 °C -20.7 °C 35139.9 hPa Calm     91 % 0 mm 0.0 W/m2 CLR
04:19 -19.9 °C -20.6 °C 35139.9 hPa Calm     92 % 0 mm 0.0 W/m2 CLR
04:21 -19.6 °C -20.2 °C 35139.9 hPa Calm     92 % 0 mm 0.0 W/m2 CLR
04:26 -19.6 °C -20.2 °C 35139.9 hPa Calm     92 % 0 mm 0.0 W/m2 CLR
05:58 -19.9 °C -20.7 °C 35116.2 hPa Calm     91 % 0 mm 0.0 W/m2 CLR
05:59 -19.9 °C -20.7 °C 35116.2 hPa Calm     91 % 0 mm 0.0 W/m2 CLR
06:04 -19.9 °C -20.7 °C 35116.2 hPa Calm     91 % 0 mm 0.0 W/m2 CLR
06:09 -19.9 °C -20.7 °C 35116.2 hPa Calm     91 % 0 mm 0.0 W/m2 CLR
06:14 -19.9 °C -20.6 °C 35116.2 hPa Calm     92 % 0 mm 0.0 W/m2 CLR
06:16 -19.9 °C -20.6 °C 35129.8 hPa Calm     92 % 0 mm 0.0 W/m2 CLR
06:21 -19.9 °C -20.6 °C 35129.8 hPa Calm     92 % 0 mm 0.0 W/m2 CLR
06:22 -19.9 °C -20.6 °C 35129.8 hPa Calm     92 % 0 mm 0.0 W/m2 CLR
06:27 -19.9 °C -20.6 °C 35116.2 hPa Calm     92 % 0 mm 0.0 W/m2 CLR
06:28 -19.9 °C -20.6 °C 35116.2 hPa Calm     92 % 0 mm 0.0 W/m2 CLR
06:33 -19.9 °C -20.6 °C 35116.2 hPa Calm     92 % 0 mm 0.0 W/m2 CLR
06:34 -19.9 °C -20.6 °C 35116.2 hPa Calm     92 % 0 mm 0.0 W/m2 CLR
06:37 -19.9 °C -20.6 °C 35129.8 hPa Calm     92 % 0 mm 0.0 W/m2 CLR
06:40 -19.9 °C -20.6 °C 35129.8 hPa Calm     92 % 0 mm 0.0 W/m2 CLR
07:04 -19.9 °C -20.7 °C 35129.8 hPa Calm     91 % 0 mm 0.0 W/m2 CLR
07:05 -19.9 °C -20.7 °C 35116.2 hPa Calm     91 % 0 mm 0.0 W/m2 CLR
07:10 -19.9 °C -20.7 °C 35116.2 hPa Calm     91 % 0 mm 0.0 W/m2 CLR
07:11 -19.9 °C -20.7 °C 35116.2 hPa Calm     91 % 0 mm 0.0 W/m2 CLR
07:13 -19.9 °C -20.6 °C 35116.2 hPa Calm     92 % 0 mm 0.0 W/m2 CLR
07:17 -19.9 °C -20.6 °C 35116.2 hPa Calm     92 % 0 mm 0.0 W/m2 CLR
07:19 -19.9 °C -20.6 °C 35116.2 hPa Calm     92 % 0 mm 0.0 W/m2 CLR
07:22 -19.9 °C -20.6 °C 35116.2 hPa Calm     92 % 0 mm 0.0 W/m2 CLR
07:32 -19.9 °C -20.6 °C 35116.2 hPa Calm     92 % 0 mm 0.0 W/m2 CLR
07:33 -19.9 °C -20.6 °C 35116.2 hPa Calm     92 % 0 mm 0.0 W/m2 CLR
07:38 -19.9 °C -20.6 °C 35129.8 hPa Calm     92 % 0 mm 0.0 W/m2 CLR
07:42 -19.9 °C -20.6 °C 35116.2 hPa Calm     92 % 0 mm 0.0 W/m2 CLR
07:47 -19.9 °C -20.6 °C 35116.2 hPa Calm     92 % 0 mm 0.0 W/m2 CLR
07:48 -19.9 °C -20.6 °C 35116.2 hPa Calm     92 % 0 mm 0.0 W/m2 CLR
07:52 -19.9 °C -20.6 °C 35116.2 hPa Calm     92 % 0 mm 0.0 W/m2 CLR
07:53 -19.9 °C -20.6 °C 35116.2 hPa Calm     92 % 0 mm 0.0 W/m2 CLR
07:56 -19.9 °C -20.6 °C 35116.2 hPa Calm     92 % 0 mm 0.0 W/m2 CLR
07:58 -19.9 °C -20.6 °C 35129.8 hPa Calm     92 % 0 mm 0.0 W/m2 CLR
08:01 -19.9 °C -20.6 °C 35116.2 hPa Calm     92 % 0 mm 0.0 W/m2 CLR
08:06 -19.6 °C -20.2 °C 35116.2 hPa Calm     92 % 0 mm 0.0 W/m2 CLR
08:07 -19.6 °C -20.2 °C 35116.2 hPa Calm     92 % 0 mm 0.0 W/m2 CLR
08:12 -19.6 °C -20.2 °C 35116.2 hPa Calm     92 % 0 mm 0.0 W/m2 CLR
08:13 -19.6 °C -20.2 °C 35116.2 hPa Calm     92 % 0 mm 0.0 W/m2 OVC
08:18 -19.6 °C -20.2 °C 35116.2 hPa Calm     92 % 0 mm 0.0 W/m2 OVC
08:19 -19.6 °C -20.2 °C 35116.2 hPa Calm     92 % 0 mm 0.0 W/m2 OVC
08:23 -19.6 °C -20.2 °C 35116.2 hPa Calm     92 % 0 mm 5.0 W/m2 OVC
08:24 -19.9 °C -20.6 °C 35116.2 hPa Calm     92 % 0 mm 5.0 W/m2 OVC
08:29 -19.9 °C -20.6 °C 35116.2 hPa Calm     92 % 0 mm 7.0 W/m2 BKN
08:34 -19.9 °C -20.6 °C 35116.2 hPa Calm     92 % 0 mm 9.0 W/m2 BKN
08:39 -19.9 °C -20.6 °C 35116.2 hPa Calm     92 % 0 mm 12.0 W/m2 BKN
08:43 -19.9 °C -20.6 °C 35116.2 hPa Calm     92 % 0 mm 14.0 W/m2 BKN
08:45 -19.9 °C -20.6 °C 35116.2 hPa Calm     92 % 0 mm 14.0 W/m2 BKN
08:50 -19.9 °C -20.6 °C 35116.2 hPa Calm     92 % 0 mm 18.0 W/m2 BKN
08:53 -19.9 °C -20.6 °C 35116.2 hPa Calm     92 % 0 mm 26.0 W/m2 BKN
08:56 -19.9 °C -20.6 °C 35116.2 hPa Calm     92 % 0 mm 32.0 W/m2 BKN
09:00 -19.9 °C -20.6 °C 35116.2 hPa Calm     92 % 0 mm 33.0 W/m2 BKN
09:02 -19.6 °C -20.2 °C 35116.2 hPa Calm     92 % 0 mm 53.0 W/m2 SCT
09:07 -19.6 °C -20.2 °C 35106 hPa Calm     92 % 0 mm 67.0 W/m2 FEW
09:08 -19.6 °C -20.2 °C 35106 hPa Calm     92 % 0 mm 67.0 W/m2 FEW
09:09 -19.6 °C -20.2 °C 35116.2 hPa Calm     92 % 0 mm 69.0 W/m2 FEW
09:14 -19.6 °C -20.2 °C 35106 hPa Calm     92 % 0 mm 69.0 W/m2 FEW
09:19 -19.6 °C -20.2 °C 35116.2 hPa Calm     92 % 0 mm 83.0 W/m2 FEW
09:24 -19.6 °C -20.2 °C 35116.2 hPa Calm     92 % 0 mm 90.0 W/m2 FEW
09:29 -19.6 °C -20.2 °C 35116.2 hPa Calm     92 % 0 mm 90.0 W/m2 CLR
09:32 -19.6 °C -20.2 °C 35116.2 hPa Calm     92 % 0 mm 90.0 W/m2 CLR
09:33 -19.6 °C -20.2 °C 35116.2 hPa Calm     92 % 0 mm 90.0 W/m2 CLR
09:38 -19.6 °C -20.3 °C 35129.8 hPa Calm     91 % 0 mm 113.0 W/m2 CLR
09:39 -19.6 °C -20.3 °C 35116.2 hPa Calm     91 % 0 mm 116.0 W/m2 CLR
09:42 -19.3 °C -20.1 °C 35116.2 hPa Calm     91 % 0 mm 123.0 W/m2 CLR
09:47 -19.3 °C -20.1 °C 35116.2 hPa Calm     90 % 0 mm 116.0 W/m2 CLR
09:48 -19.3 °C -20.1 °C 35116.2 hPa Calm     90 % 0 mm 135.0 W/m2 CLR
09:49 -19.3 °C -20.1 °C 35116.2 hPa Calm     90 % 0 mm 144.0 W/m2 CLR
09:54 -19 °C -19.9 °C 35116.2 hPa Calm     88 % 0 mm 156.0 W/m2 CLR
09:59 -18.7 °C -19.8 °C 35129.8 hPa Calm     87 % 0 mm 158.0 W/m2 CLR
10:00 -18.7 °C -19.8 °C 35129.8 hPa Calm     87 % 0 mm 132.0 W/m2 CLR
10:02 -18.7 °C -19.8 °C 35129.8 hPa Calm     87 % 0 mm 123.0 W/m2 CLR
10:07 -18.7 °C -19.8 °C 35129.8 hPa Calm     87 % 0 mm 134.0 W/m2 CLR
10:10 -18.7 °C -19.7 °C 35129.8 hPa Calm     88 % 0 mm 139.0 W/m2 CLR
10:13 -18.4 °C -19.3 °C 35129.8 hPa Calm     88 % 0 mm 153.0 W/m2 CLR
10:16 -18.4 °C -19.3 °C 35129.8 hPa Calm     88 % 0 mm 195.0 W/m2 CLR
10:19 -18.4 °C -19.3 °C 35129.8 hPa Calm     89 % 0 mm 223.0 W/m2 CLR
10:24 -18.4 °C -19.3 °C 35139.9 hPa Calm     88 % 0 mm 236.0 W/m2 CLR
10:25 -18.4 °C -19.3 °C 35139.9 hPa Calm     88 % 0 mm 237.0 W/m2 CLR
10:26 -18.4 °C -19.3 °C 35129.8 hPa Calm     88 % 0 mm 239.0 W/m2 CLR
10:31 -18.1 °C -19.1 °C 35139.9 hPa Calm     88 % 0 mm 251.0 W/m2 CLR
10:36 -17.8 °C -18.8 °C 35139.9 hPa Calm     87 % 0 mm 265.0 W/m2 CLR
10:37 -17.8 °C -18.8 °C 35139.9 hPa Calm     87 % 0 mm 269.0 W/m2 CLR
10:39 -17.8 °C -18.8 °C 35139.9 hPa Calm     87 % 0 mm 274.0 W/m2 CLR
10:44 -17.8 °C -18.8 °C 35139.9 hPa Calm     87 % 0 mm 288.0 W/m2 CLR
10:46 -17.8 °C -18.9 °C 35139.9 hPa Calm     86 % 0 mm 281.0 W/m2 CLR
10:48 -17.4 °C -18.6 °C 35139.9 hPa Calm     86 % 0 mm 294.0 W/m2 CLR
10:51 -17.4 °C -18.6 °C 35139.9 hPa Calm     86 % 0 mm 299.0 W/m2 CLR
10:55 -17.4 °C -18.6 °C 35139.9 hPa Calm     86 % 0 mm 306.0 W/m2 CLR
10:56 -17.2 °C -18.3 °C 35139.9 hPa Calm     86 % 0 mm 306.0 W/m2 CLR
11:01 -17.2 °C -18.3 °C 35139.9 hPa Calm     86 % 0 mm 318.0 W/m2 CLR
11:05 -17.2 °C -18.4 °C 35139.9 hPa Calm     85 % 7.62 mm 323.0 W/m2 RA
11:09 -16.8 °C -18.1 °C 35139.9 hPa Calm     85 % 7.62 mm 330.0 W/m2 CLR
11:10 -16.8 °C -18.1 °C 35139.9 hPa Calm     85 % 7.62 mm 332.0 W/m2 CLR
11:15 -16.8 °C -18.1 °C 35139.9 hPa Calm     85 % 7.62 mm 339.0 W/m2 CLR
11:18 -16.6 °C -17.9 °C 35139.9 hPa Calm     84 % 7.62 mm 346.0 W/m2 CLR
11:20 -16.6 °C -18 °C 35139.9 hPa Calm     83 % 7.62 mm 348.0 W/m2 CLR
11:25 -16.2 °C -17.8 °C 35129.8 hPa Calm     82 % 7.62 mm 355.0 W/m2 CLR
11:28 -16.2 °C -17.8 °C 35139.9 hPa Calm     82 % 7.62 mm 360.0 W/m2 CLR
11:32 -16.2 °C -17.9 °C 35129.8 hPa Calm     81 % 7.62 mm 364.0 W/m2 CLR
11:37 -15.9 °C -17.7 °C 35129.8 hPa Calm     80 % 7.62 mm 373.0 W/m2 CLR
11:42 -15.6 °C -17.4 °C 35129.8 hPa Calm     79 % 7.62 mm 376.0 W/m2 CLR
11:44 -15.6 °C -17.4 °C 35129.8 hPa Calm     79 % 7.62 mm 380.0 W/m2 CLR
11:45 -15.6 °C -17.4 °C 35129.8 hPa Calm     79 % 7.62 mm 381.0 W/m2 CLR
11:50 -15.3 °C -17.3 °C 35129.8 hPa Calm     78 % 7.62 mm 387.0 W/m2 CLR
11:55 -15.3 °C -17.3 °C 35116.2 hPa Calm     78 % 7.62 mm 392.0 W/m2 CLR
11:56 -15.3 °C -17.3 °C 35116.2 hPa Calm     78 % 7.62 mm 392.0 W/m2 CLR
11:57 -15.3 °C -17.3 °C 35116.2 hPa Calm     77 % 7.62 mm 394.0 W/m2 CLR
12:01 -15.3 °C -17.3 °C 35116.2 hPa East 15.6 km/h 15.6 km/h 78 % 7.62 mm 396.0 W/m2 CLR
12:06 -15.3 °C -17.3 °C 35116.2 hPa ENE 6 km/h 6 km/h 77 % 0 mm 401.0 W/m2 CLR
12:11 -15.3 °C -17.3 °C 35116.2 hPa ENE 9 km/h 9 km/h 77 % 0 mm 404.0 W/m2 CLR
12:15 -15 °C -17.2 °C 35116.2 hPa East 6 km/h 6 km/h 76 % 0 mm 408.0 W/m2 CLR
12:19 -15 °C -17.2 °C 35116.2 hPa East 9 km/h 9 km/h 76 % 0 mm 410.0 W/m2 CLR
12:20 -15 °C -17.2 °C 35106 hPa East 20.9 km/h 20.9 km/h 76 % 0 mm 410.0 W/m2 CLR
12:25 -15 °C -17.2 °C 35106 hPa East 20.9 km/h 20.9 km/h 76 % 0 mm 413.0 W/m2 CLR
12:26 -15 °C -17.2 °C 35106 hPa East 20.9 km/h 20.9 km/h 76 % 0 mm 413.0 W/m2 CLR
12:31 -15 °C -17.1 °C 35106 hPa East 6 km/h 6 km/h 77 % 0 mm 417.0 W/m2 CLR
12:32 -15 °C -17.1 °C 35106 hPa East 6 km/h 6 km/h 77 % 0 mm 417.0 W/m2 CLR
12:35 -14.7 °C -16.8 °C 35106 hPa East 9 km/h 9 km/h 77 % 0 mm 418.0 W/m2 CLR
12:37 -14.7 °C -16.8 °C 35106 hPa Calm     77 % 0 mm 418.0 W/m2 CLR
12:42 -14.7 °C -16.8 °C 35106 hPa ENE 6 km/h 6 km/h 76 % 0 mm 420.0 W/m2 CLR
12:43 -14.7 °C -16.8 °C 35106 hPa East 6 km/h 6 km/h 76 % 0 mm 420.0 W/m2 CLR
12:48 -14.7 °C -16.8 °C 35095.9 hPa East 6 km/h   76 % 0 mm 422.0 W/m2 CLR
12:49 -14.7 °C -16.8 °C 35095.9 hPa Calm   0.5 km/h 76 % 0 mm 422.0 W/m2 CLR
12:54 -14.7 °C -17 °C 35095.9 hPa East 9 km/h 9 km/h 75 % 0 mm 424.0 W/m2 CLR
12:55 -14.7 °C -17 °C 35095.9 hPa East 9 km/h 9 km/h 75 % 0 mm 424.0 W/m2 CLR
13:00 -14.4 °C -16.7 °C 35095.9 hPa East 7.7 km/h 7.7 km/h 75 % 0 mm 424.0 W/m2 CLR
13:05 -14.4 °C -16.8 °C 35095.9 hPa East 3.1 km/h 3.1 km/h 74 % 0 mm 424.0 W/m2 CLR
13:06 -14.1 °C -16.5 °C 35082.3 hPa East 3.1 km/h 3.1 km/h 74 % 0 mm 424.0 W/m2 CLR
13:11 -14.1 °C -16.5 °C 35082.3 hPa East 9 km/h 9 km/h 74 % 0 mm 424.0 W/m2 CLR
13:17 -14.1 °C -16.5 °C 35082.3 hPa East 7.7 km/h 7.7 km/h 74 % 0 mm 422.0 W/m2 CLR
13:22 -13.8 °C -16.3 °C 35082.3 hPa East 12.9 km/h 12.9 km/h 73 % 0 mm 422.0 W/m2 CLR
13:27 -13.8 °C -16.2 °C 35082.3 hPa East 15.6 km/h 15.6 km/h 74 % 0 mm 413.0 W/m2 CLR
13:29 -13.8 °C -16.2 °C 35082.3 hPa East 20.9 km/h 20.9 km/h 74 % 0 mm 418.0 W/m2 CLR
13:33 -13.8 °C -16.2 °C 35072.2 hPa ENE 20.9 km/h 20.9 km/h 74 % 0 mm 417.0 W/m2 CLR
13:35 -13.8 °C -16.1 °C 35072.2 hPa ESE 10.3 km/h 10.3 km/h 75 % 0 mm 417.0 W/m2 CLR
13:40 -13.8 °C -16.1 °C 35072.2 hPa ESE 9 km/h 9 km/h 75 % 0 mm 413.0 W/m2 CLR
13:45 -13.8 °C -16.1 °C 35072.2 hPa East 9 km/h 9 km/h 75 % 0 mm 408.0 W/m2 CLR
13:47 -13.8 °C -16.2 °C 35058.6 hPa East 9 km/h 9 km/h 74 % 0 mm 408.0 W/m2 CLR
13:51 -13.8 °C -16.2 °C 35058.6 hPa ESE 9 km/h 9 km/h 74 % 0 mm 406.0 W/m2 CLR
13:56 -13.8 °C -16.2 °C 35058.6 hPa East 29.8 km/h 29.8 km/h 74 % 0 mm 401.0 W/m2 CLR
13:57 -13.8 °C -16.1 °C 35058.6 hPa East 26.9 km/h 26.9 km/h 75 % 0 mm 401.0 W/m2 CLR
13:58 -13.4 °C -15.8 °C 35058.6 hPa East 23.8 km/h 23.8 km/h 75 % 0 mm 399.0 W/m2 CLR
14:03 -13.4 °C -15.8 °C 35058.6 hPa ENE 23.8 km/h 23.8 km/h 75 % 0 mm 396.0 W/m2 CLR
14:08 -13.4 °C -15.8 °C 35058.6 hPa East 23.8 km/h 23.8 km/h 75 % 0 mm 388.0 W/m2 CLR
14:10 -13.4 °C -15.8 °C 35048.5 hPa East 15 km/h 15 km/h 75 % 0 mm 388.0 W/m2 CLR
14:14 -13.4 °C -15.9 °C 35048.5 hPa East 20.9 km/h 20.9 km/h 74 % 0 mm 383.0 W/m2 CLR
14:19 -13.4 °C -15.9 °C 35048.5 hPa East 23.8 km/h 23.8 km/h 74 % 0 mm 376.0 W/m2 CLR
14:20 -13.4 °C -15.9 °C 35048.5 hPa East 23.8 km/h 23.8 km/h 74 % 0 mm 376.0 W/m2 CLR
14:25 -13.4 °C -15.9 °C 35048.5 hPa East 23.8 km/h 23.8 km/h 74 % 0 mm 371.0 W/m2 CLR
14:26 -13.4 °C -15.9 °C 35048.5 hPa East 15 km/h 15 km/h 74 % 0 mm 369.0 W/m2 CLR
14:29 -13.4 °C -15.9 °C 35048.5 hPa East 9 km/h 9 km/h 74 % 0 mm 366.0 W/m2 CLR
14:31 -13.4 °C -16 °C 35038.3 hPa ENE 6 km/h 6 km/h 73 % 0 mm 362.0 W/m2 CLR
14:36 -13.4 °C -16 °C 35038.3 hPa East 11.9 km/h 11.9 km/h 73 % 0 mm 355.0 W/m2 CLR
14:41 -13.4 °C -16 °C 35038.3 hPa East 6 km/h 6 km/h 73 % 0 mm 348.0 W/m2 CLR
14:43 -13.2 °C -15.7 °C 35038.3 hPa East 9 km/h 9 km/h 73 % 0 mm 346.0 W/m2 CLR
14:46 -13.4 °C -16 °C 35038.3 hPa East 11.9 km/h 11.9 km/h 73 % 0 mm 343.0 W/m2 CLR
14:51 -13.2 °C -15.7 °C 35038.3 hPa East 9 km/h 9 km/h 73 % 0 mm 334.0 W/m2 CLR
14:56 -13.2 °C -15.7 °C 35024.8 hPa East 9 km/h 9 km/h 73 % 0 mm 325.0 W/m2 CLR
14:57 -13.2 °C -15.6 °C 35024.8 hPa Calm     74 % 0 mm 323.0 W/m2 CLR
15:02 -13.4 °C -15.9 °C 35024.8 hPa East 9 km/h 9 km/h 74 % 0 mm 315.0 W/m2 CLR
15:06 -13.4 °C -15.9 °C 35024.8 hPa East 9 km/h 9 km/h 74 % 0 mm 309.0 W/m2 CLR
15:08 -13.4 °C -16 °C 35024.8 hPa ENE 11.9 km/h 11.9 km/h 73 % 0 mm 306.0 W/m2 CLR
15:12 -13.4 °C -15.9 °C 35024.8 hPa East 9 km/h 9 km/h 74 % 0 mm 297.0 W/m2 CLR
15:13 -13.4 °C -15.9 °C 35024.8 hPa ENE 11.9 km/h 11.9 km/h 74 % 0 mm 295.0 W/m2 CLR
15:18 -13.4 °C -15.9 °C 35014.6 hPa ENE 6 km/h 6 km/h 74 % 0 mm 287.0 W/m2 CLR
15:20 -13.4 °C -15.8 °C 35024.8 hPa East 10.3 km/h 10.3 km/h 75 % 0 mm 283.0 W/m2 CLR
15:25 -13.4 °C -15.8 °C 35014.6 hPa East 20.8 km/h 20.8 km/h 75 % 0 mm 274.0 W/m2 CLR
15:30 -13.8 °C -16.1 °C 35024.8 hPa East 6 km/h 6 km/h 75 % 0 mm 258.0 W/m2 CLR
15:31 -13.8 °C -16.1 °C 35024.8 hPa East 6 km/h 6 km/h 75 % 0 mm 258.0 W/m2 CLR
15:32 -13.8 °C -15.9 °C 35024.8 hPa East 6 km/h 6 km/h 76 % 0 mm 257.0 W/m2 CLR
15:36 -13.8 °C -15.9 °C 35014.6 hPa ENE 9 km/h 9 km/h 76 % 0 mm 248.0 W/m2 CLR
15:41 -14.1 °C -16.2 °C 35014.6 hPa ENE 6 km/h 6 km/h 77 % 0 mm 232.0 W/m2 CLR
15:46 -14.1 °C -16.2 °C 35014.6 hPa East 9 km/h 9 km/h 77 % 0 mm 220.0 W/m2 CLR
15:47 -14.1 °C -16.2 °C 35014.6 hPa ENE 9 km/h 9 km/h 77 % 0 mm 216.0 W/m2 CLR
15:52 -14.1 °C -16.1 °C 35014.6 hPa East 3.1 km/h 3.1 km/h 78 % 0 mm 204.0 W/m2 CLR
15:53 -14.1 °C -16.1 °C 35014.6 hPa East 6 km/h 6 km/h 78 % 0 mm 202.0 W/m2 CLR
15:54 -14.1 °C -16.1 °C 35014.6 hPa East 9 km/h 9 km/h 78 % 0 mm 200.0 W/m2 CLR
15:58 -14.1 °C -16.1 °C 35014.6 hPa East 9 km/h 9 km/h 78 % 0 mm 192.0 W/m2 CLR
16:00 -14.1 °C -16.1 °C 35014.6 hPa East 9 km/h 9 km/h 78 % 0 mm 183.0 W/m2 CLR
16:05 -14.1 °C -15.9 °C 35014.6 hPa Calm     79 % 0 mm 171.0 W/m2 CLR
16:10 -14.4 °C -16.3 °C 35001.1 hPa Calm     79 % 0 mm 155.0 W/m2 CLR
16:15 -14.4 °C -16.3 °C 35001.1 hPa Calm     79 % 0 mm 141.0 W/m2 CLR
16:20 -14.4 °C -16.3 °C 35014.6 hPa East 9 km/h 9 km/h 79 % 0 mm 127.0 W/m2 CLR
16:21 -14.4 °C -16.3 °C 35014.6 hPa East 9 km/h 9 km/h 79 % 0 mm 127.0 W/m2 CLR
16:26 -14.4 °C -16.3 °C 35001.1 hPa East 9 km/h 9 km/h 79 % 0 mm 113.0 W/m2 CLR
16:27 -14.4 °C -16.3 °C 35001.1 hPa East 9 km/h 9 km/h 79 % 0 mm 111.0 W/m2 CLR
16:32 -14.7 °C -16.4 °C 35001.1 hPa East 6 km/h   80 % 0 mm 95.0 W/m2 CLR
16:37 -14.7 °C -16.4 °C 35001.1 hPa East 6 km/h 6 km/h 80 % 0 mm 84.0 W/m2 FEW
16:38 -14.7 °C -16.4 °C 35001.1 hPa ENE 6 km/h 6 km/h 80 % 0 mm 81.0 W/m2 FEW
16:43 -15 °C -16.8 °C 35001.1 hPa East 10.3 km/h 10.3 km/h 80 % 0 mm 62.0 W/m2 SCT
16:48 -15 °C -16.7 °C 35001.1 hPa East 9 km/h 9 km/h 81 % 0 mm 46.0 W/m2 SCT
16:49 -15 °C -16.7 °C 35001.1 hPa East 9 km/h 9 km/h 81 % 0 mm 49.0 W/m2 SCT
16:50 -15 °C -16.6 °C 35001.1 hPa Calm     82 % 0 mm 49.0 W/m2 SCT
16:55 -15.3 °C -16.9 °C 35001.1 hPa East 9 km/h 9 km/h 82 % 0 mm 39.0 W/m2 BKN
17:00 -15.3 °C -16.9 °C 35001.1 hPa East 9 km/h 9 km/h 82 % 0 mm 32.0 W/m2 BKN
17:05 -15.3 °C -16.8 °C 35001.1 hPa East 9 km/h 9 km/h 83 % 0 mm 25.0 W/m2 BKN
17:06 -15.3 °C -16.8 °C 35001.1 hPa East 9 km/h 9 km/h 83 % 0 mm 23.0 W/m2 BKN
17:11 -15.6 °C -17.1 °C 35001.1 hPa East 9 km/h 9 km/h 83 % 0 mm 18.0 W/m2 BKN
17:12 -15.6 °C -17 °C 35001.1 hPa East 6 km/h   84 % 0 mm 16.0 W/m2 BKN
17:17 -15.6 °C -17 °C 35001.1 hPa Calm     84 % 0 mm 12.0 W/m2 BKN
17:18 -15.6 °C -17 °C 35001.1 hPa Calm     84 % 0 mm 12.0 W/m2 BKN
17:23 -15.9 °C -17.2 °C 35001.1 hPa Calm     85 % 0 mm 11.0 W/m2 BKN
17:28 -15.9 °C -17.2 °C 35001.1 hPa Calm     85 % 0 mm 9.0 W/m2 BKN
17:29 -15.9 °C -17.2 °C 35001.1 hPa Calm     85 % 0 mm 7.0 W/m2 BKN
17:34 -16.2 °C -17.4 °C 35001.1 hPa Calm     86 % 0 mm 5.0 W/m2 OVC
17:35 -16.2 °C -17.4 °C 35001.1 hPa ENE 7.7 km/h 7.7 km/h 86 % 0 mm 5.0 W/m2 OVC
17:36 -16.2 °C -17.4 °C 35001.1 hPa ENE 10.3 km/h 10.3 km/h 86 % 0 mm 5.0 W/m2 OVC
17:40 -16.2 °C -17.3 °C 35001.1 hPa ENE 11.9 km/h 11.9 km/h 87 % 0 mm 0.0 W/m2 OVC
17:41 -16.2 °C -17.3 °C 35001.1 hPa East 11.9 km/h 11.9 km/h 87 % 0 mm 0.0 W/m2 OVC
17:46 -16.6 °C -17.6 °C 35001.1 hPa Calm     88 % 0 mm 0.0 W/m2 CLR
17:47 -16.6 °C -17.6 °C 35001.1 hPa Calm     88 % 0 mm 0.0 W/m2 CLR
17:48 -16.6 °C -17.6 °C 35001.1 hPa Calm     88 % 0 mm 0.0 W/m2 CLR
17:52 -16.6 °C -17.6 °C 35001.1 hPa Calm     88 % 0 mm 0.0 W/m2 CLR
17:53 -16.6 °C -17.6 °C 34990.9 hPa Calm     88 % 0 mm 0.0 W/m2 CLR
17:58 -16.8 °C -17.7 °C 35001.1 hPa Calm     89 % 0 mm 0.0 W/m2 CLR
18:02 -16.8 °C -17.7 °C 35001.1 hPa Calm     89 % 0 mm 0.0 W/m2 CLR
18:03 -16.8 °C -17.7 °C 35001.1 hPa Calm     89 % 0 mm 0.0 W/m2 CLR
18:08 -16.8 °C -17.7 °C 35001.1 hPa Calm     89 % 0 mm 0.0 W/m2 CLR
18:09 -16.8 °C -17.7 °C 35001.1 hPa Calm     89 % 0 mm 0.0 W/m2 CLR
18:11 -16.8 °C -17.7 °C 35001.1 hPa Calm     89 % 0 mm 0.0 W/m2 CLR
18:15 -16.6 °C -17.3 °C 35001.1 hPa Calm     90 % 0 mm 0.0 W/m2 CLR
18:20 -16.6 °C -17.3 °C 35001.1 hPa Calm     90 % 0 mm 0.0 W/m2 CLR
18:21 -16.6 °C -17.3 °C 35001.1 hPa Calm     90 % 0 mm 0.0 W/m2 CLR
18:26 -16.8 °C -17.7 °C 35001.1 hPa Calm     90 % 0 mm 0.0 W/m2 CLR
18:29 -16.8 °C -17.7 °C 35001.1 hPa Calm     90 % 0 mm 0.0 W/m2 CLR
18:32 -16.8 °C -17.7 °C 35001.1 hPa Calm     90 % 0 mm 0.0 W/m2 CLR
18:37 -16.8 °C -17.7 °C 35001.1 hPa Calm     90 % 0 mm 0.0 W/m2 CLR
18:38 -16.8 °C -17.7 °C 35001.1 hPa Calm     90 % 0 mm 0.0 W/m2 CLR
18:43 -16.8 °C -17.6 °C 35001.1 hPa Calm     91 % 0 mm 0.0 W/m2 CLR
18:44 -16.8 °C -17.6 °C 35001.1 hPa Calm     91 % 0 mm 0.0 W/m2 CLR
18:48 -16.8 °C -17.6 °C 35001.1 hPa Calm     91 % 0 mm 0.0 W/m2 CLR
18:49 -16.8 °C -17.6 °C 35001.1 hPa Calm     91 % 0 mm 0.0 W/m2 CLR
18:54 -16.8 °C -17.6 °C 35001.1 hPa Calm     91 % 0 mm 0.0 W/m2 CLR
18:56 -16.8 °C -17.6 °C 35001.1 hPa Calm     91 % 0 mm 0.0 W/m2 CLR
19:01 -16.8 °C -17.6 °C 35001.1 hPa Calm     91 % 0 mm 0.0 W/m2 CLR
19:04 -16.8 °C -17.6 °C 35001.1 hPa Calm     91 % 0 mm 0.0 W/m2 CLR
19:07 -16.8 °C -17.6 °C 35001.1 hPa Calm     91 % 0 mm 0.0 W/m2 CLR
19:12 -17.2 °C -17.9 °C 35014.6 hPa Calm     91 % 0 mm 0.0 W/m2 CLR
19:16 -17.2 °C -17.9 °C 35014.6 hPa Calm     91 % 0 mm 0.0 W/m2 CLR
19:17 -17.2 °C -17.9 °C 35014.6 hPa Calm     91 % 0 mm 0.0 W/m2 CLR
19:22 -17.2 °C -17.9 °C 35014.6 hPa Calm     91 % 0 mm 0.0 W/m2 CLR
19:27 -17.2 °C -17.9 °C 35014.6 hPa Calm     91 % 0 mm 0.0 W/m2 CLR
19:31 -17.2 °C -17.9 °C 35014.6 hPa Calm     91 % 0 mm 0.0 W/m2 CLR
19:32 -17.2 °C -17.9 °C 35014.6 hPa Calm     91 % 0 mm 0.0 W/m2 CLR
19:36 -17.2 °C -17.8 °C 35014.6 hPa Calm     92 % 0 mm 0.0 W/m2 CLR
19:39 -17.2 °C -17.8 °C 35014.6 hPa Calm     92 % 0 mm 0.0 W/m2 CLR
19:42 -17.2 °C -17.8 °C 35014.6 hPa Calm     92 % 0 mm 0.0 W/m2 CLR
19:47 -17.2 °C -17.8 °C 35014.6 hPa Calm     92 % 0 mm 0.0 W/m2 CLR
19:48 -17.2 °C -17.8 °C 35014.6 hPa Calm     92 % 0 mm 0.0 W/m2 CLR
19:52 -17.2 °C -17.8 °C 35014.6 hPa Calm     92 % 0 mm 0.0 W/m2 CLR
19:53 -17.2 °C -17.8 °C 35014.6 hPa Calm     92 % 0 mm 0.0 W/m2 CLR
19:58 -17.2 °C -17.8 °C 35014.6 hPa Calm     92 % 0 mm 0.0 W/m2 CLR
19:59 -17.2 °C -17.8 °C 35014.6 hPa Calm     92 % 0 mm 0.0 W/m2 CLR
20:01 -17.2 °C -17.8 °C 35014.6 hPa Calm     92 % 0 mm 0.0 W/m2 CLR
20:05 -17.2 °C -17.8 °C 35014.6 hPa Calm     92 % 0 mm 0.0 W/m2 CLR
20:08 -17.2 °C -17.8 °C 35024.8 hPa Calm     92 % 0 mm 0.0 W/m2 CLR
20:12 -17.2 °C -17.8 °C 35024.8 hPa Calm     92 % 0 mm 0.0 W/m2 CLR
20:13 -17.2 °C -17.8 °C 35024.8 hPa Calm     92 % 0 mm 0.0 W/m2 CLR
20:18 -17.2 °C -17.8 °C 35014.6 hPa Calm     92 % 0 mm 0.0 W/m2 CLR
20:19 -17.2 °C -17.8 °C 35014.6 hPa Calm     92 % 0 mm 0.0 W/m2 CLR
20:20 -17.2 °C -17.8 °C 35024.8 hPa Calm     92 % 0 mm 0.0 W/m2 CLR
20:25 -17.2 °C -17.8 °C 35024.8 hPa Calm     92 % 0 mm 0.0 W/m2 CLR
20:26 -17.2 °C -17.8 °C 35024.8 hPa Calm     92 % 0 mm 0.0 W/m2 CLR
20:29 -17.2 °C -17.8 °C 35024.8 hPa Calm     92 % 0 mm 0.0 W/m2 CLR
20:31 -17.2 °C -17.8 °C 35024.8 hPa Calm     92 % 0 mm 0.0 W/m2 CLR
20:36 -17.2 °C -17.8 °C 35014.6 hPa Calm     92 % 0 mm 0.0 W/m2 CLR
20:37 -17.2 °C -17.8 °C 35014.6 hPa Calm     92 % 0 mm 0.0 W/m2 CLR
20:39 -17.2 °C -17.8 °C 35014.6 hPa Calm     92 % 0 mm 0.0 W/m2 CLR
20:44 -17.4 °C -18.1 °C 35024.8 hPa Calm     92 % 0 mm 0.0 W/m2 CLR
20:49 -17.4 °C -18.1 °C 35014.6 hPa Calm     92 % 0 mm 0.0 W/m2 CLR
20:54 -17.4 °C -18.1 °C 35014.6 hPa Calm     92 % 0 mm 0.0 W/m2 CLR
20:55 -17.4 °C -18.1 °C 35014.6 hPa Calm     92 % 0 mm 0.0 W/m2 CLR
21:00 -17.4 °C -18.1 °C 35014.6 hPa Calm     92 % 0 mm 0.0 W/m2 CLR
21:02 -17.4 °C -18.1 °C 35014.6 hPa Calm     92 % 0 mm 0.0 W/m2 CLR
21:03 -17.4 °C -18.1 °C 35014.6 hPa Calm     92 % 0 mm 0.0 W/m2 CLR
21:08 -17.4 °C -18.1 °C 35014.6 hPa Calm     92 % 0 mm 0.0 W/m2 CLR
21:14 -17.4 °C -18.1 °C 35014.6 hPa Calm     92 % 0 mm 0.0 W/m2 CLR
21:19 -17.4 °C -18 °C 35014.6 hPa Calm     93 % 0 mm 0.0 W/m2 CLR
21:23 -17.4 °C -18 °C 35014.6 hPa Calm     93 % 0 mm 0.0 W/m2 CLR
21:25 -17.4 °C -18 °C 35014.6 hPa Calm     93 % 0 mm 0.0 W/m2 CLR
21:29 -17.8 °C -18.3 °C 35014.6 hPa Calm     93 % 0 mm 0.0 W/m2 CLR
21:32 -17.8 °C -18.3 °C 35014.6 hPa Calm     93 % 0 mm 0.0 W/m2 CLR
21:35 -17.8 °C -18.4 °C 35014.6 hPa Calm     92 % 0 mm 0.0 W/m2 CLR
21:40 -17.8 °C -18.4 °C 35014.6 hPa Calm     92 % 0 mm 0.0 W/m2 CLR
21:45 -17.8 °C -18.3 °C 35014.6 hPa Calm     93 % 0 mm 0.0 W/m2 CLR
21:50 -17.8 °C -18.3 °C 35014.6 hPa Calm     93 % 0 mm 0.0 W/m2 CLR
21:55 -17.8 °C -18.3 °C 35014.6 hPa Calm     93 % 0 mm 0.0 W/m2 CLR
21:57 -17.8 °C -18.3 °C 35014.6 hPa Calm     93 % 0 mm 0.0 W/m2 CLR
22:02 -17.8 °C -18.3 °C 35014.6 hPa Calm     93 % 0 mm 0.0 W/m2 CLR
22:07 -17.8 °C -18.3 °C 35014.6 hPa Calm     93 % 0 mm 0.0 W/m2 CLR
22:12 -17.8 °C -18.3 °C 35014.6 hPa Calm     93 % 0 mm 0.0 W/m2 CLR
22:13 -17.8 °C -18.3 °C 35014.6 hPa Calm     93 % 0 mm 0.0 W/m2 CLR
22:14 -17.8 °C -18.3 °C 35014.6 hPa Calm     93 % 0 mm 0.0 W/m2 CLR
22:19 -17.8 °C -18.3 °C 35014.6 hPa Calm     93 % 0 mm 0.0 W/m2 CLR
22:20 -17.8 °C -18.3 °C 35014.6 hPa Calm     93 % 0 mm 0.0 W/m2 CLR
22:24 -17.8 °C -18.3 °C 35014.6 hPa Calm     93 % 0 mm 0.0 W/m2 CLR
22:25 -17.8 °C -18.3 °C 35014.6 hPa Calm     93 % 0 mm 0.0 W/m2 CLR
22:30 -18.1 °C -18.7 °C 35014.6 hPa Calm     93 % 0 mm 0.0 W/m2 CLR
22:33 -18.1 °C -18.7 °C 35014.6 hPa Calm     93 % 0 mm 0.0 W/m2 CLR
22:38 -18.1 °C -18.7 °C 35014.6 hPa Calm     93 % 0 mm 0.0 W/m2 CLR
22:41 -18.1 °C -18.7 °C 35014.6 hPa Calm     93 % 0 mm 0.0 W/m2 CLR
22:45 -18.1 °C -18.7 °C 35001.1 hPa Calm     93 % 0 mm 0.0 W/m2 CLR
22:50 -18.1 °C -18.7 °C 35014.6 hPa Calm     93 % 0 mm 0.0 W/m2 CLR
22:51 -18.1 °C -18.7 °C 35014.6 hPa Calm     93 % 0 mm 0.0 W/m2 CLR
22:53 -18.1 °C -18.7 °C 35014.6 hPa Calm     93 % 0 mm 0.0 W/m2 CLR
22:58 -18.1 °C -18.7 °C 35014.6 hPa Calm     93 % 0 mm 0.0 W/m2 CLR
23:00 -18.1 °C -18.7 °C 35014.6 hPa Calm     93 % 0 mm 0.0 W/m2 CLR
23:04 -18.1 °C -18.7 °C 35014.6 hPa Calm     93 % 0 mm 0.0 W/m2 CLR
23:06 -18.1 °C -18.7 °C 35001.1 hPa Calm     93 % 0 mm 0.0 W/m2 CLR
23:10 -18.1 °C -18.7 °C 35014.6 hPa Calm     93 % 0 mm 0.0 W/m2 CLR
23:13 -18.1 °C -18.7 °C 35014.6 hPa Calm     93 % 0 mm 0.0 W/m2 CLR
23:16 -18.1 °C -18.7 °C 35014.6 hPa Calm     93 % 0 mm 0.0 W/m2 CLR
23:19 -18.1 °C -18.7 °C 35014.6 hPa Calm     93 % 0 mm 0.0 W/m2 CLR
23:24 -18.1 °C -18.7 °C 35014.6 hPa Calm     93 % 0 mm 0.0 W/m2 CLR
23:25 -18.1 °C -18.7 °C 35014.6 hPa Calm     93 % 0 mm 0.0 W/m2 CLR
23:27 -18.1 °C -18.7 °C 35014.6 hPa Calm     93 % 0 mm 0.0 W/m2 CLR
23:32 -18.4 °C -18.9 °C 35014.6 hPa Calm     93 % 0 mm 0.0 W/m2 CLR
23:33 -18.4 °C -18.9 °C 35014.6 hPa Calm     93 % 0 mm 0.0 W/m2 CLR
23:38 -18.4 °C -18.9 °C 35014.6 hPa Calm     93 % 0 mm 0.0 W/m2 CLR
23:40 -18.4 °C -18.9 °C 35014.6 hPa Calm     93 % 0 mm 0.0 W/m2 CLR
23:41 -18.4 °C -18.9 °C 35014.6 hPa Calm     93 % 0 mm 0.0 W/m2 CLR
23:45 -18.4 °C -18.9 °C 35014.6 hPa Calm     93 % 0 mm 0.0 W/m2 CLR
23:46 -18.4 °C -18.9 °C 35014.6 hPa Calm     93 % 0 mm 0.0 W/m2 CLR
23:51 -18.4 °C -18.9 °C 35014.6 hPa Calm     93 % 0 mm 0.0 W/m2 CLR
23:56 -18.4 °C -18.9 °C 35014.6 hPa Calm     93 % 0 mm 0.0 W/m2 CLR
23:57 -18.4 °C -18.9 °C 35014.6 hPa Calm     93 % 0 mm 0.0 W/m2 CLR
Lo Temps de Massalio
Compliments of Weather Underground - 1.5 mb